STARLINK-34025, 63824

Orbit data source: Space-Track

STARLINK-34025, 63824 is a payload satellite owned by SpaceX/Seattle (US) in LEO that was launched on Sun, 04 May 2025 UTC via an FALCON 9 launch vehicle from the Air Force Eastern Test Range (AFETR). Payload-class satellites include a variety of spacecraft equipped with specific instruments for various scientific and technological missions. These include communications satellites like Starlink; space stations such as the ISS; scientific satellites like the Hubble; Earth observation satellites from companies like Planet Labs, Umbra, and HawkEye 360; GPS; miniature CubeSats for education and research; and military/defense satellites.

Loading next visibility...
Identifier
63824, 2025-092W
Orbit
LEO
Country
Flag of USUS
Related business
Manufacturer
SpaceX/Seattle
Mission
Operational Commercial Communications
Bus & Motor
STARLINK V2MO, Unknown motor
Mass
575 kg wet, ~530 kg dry
Launch date (UTC)
2025-05-04 (7 months ago)
Launch vehicle
FALCON 9
Launch site
Air Force Eastern Test Range (AFETR)
Object type
Payload
Rocket body
Debris
Shape & HBR
Box + 2 Pan, 17.7 m
Radar Cross Section
36.964 m², Large (>1 m²)

Expand to show TLE details & history
Last TLE update: 2 days ago

TLE from 2 days ago
0 STARLINK-34025
1 63824U 25092W   25338.38792130  .00077721  00000-0  27992-2 0  9990
2 63824  42.9995 350.3984 0001159 277.4880  82.5840 15.27639502 33987
Epoch: 2025-12-04T09:18Z
TLE epoch observation values (Epoch: 2025-12-04T09:18:36.400Z)
Latitude
-0.00001°
Longitude
137.30164°
Altitude
482.544 km
Speed
7.626 km/s
True Right ascension
23h 21m 35s
True Declination
0° 00' 00"
Sunlit
Object was in daylight at epoch
Visualization orbit readout
Latitude
Unknown
Longitude
Unknown
Altitude
Unknown
Speed
Unknown
Apparent Right ascension
Unknown
Apparent Declination
Unknown
Sunlit
N/A
Visualization observer readout
Local Sidereal Time
02:00:22
Azimuth
Unknown
Elevation
Unknown
Doppler factor
Unknown
Orbital elements
Apogee altitude
485.612 km
Perigee altitude
484.021 km
Semi-major axis
6,862.953 km
Eccentricity
0.00012
Inclination
42.9995°
RAAN
350.3984°
Arg. of periapsis
277.488°
True anomaly
82.59717°
Mean anomaly
82.584°
Eccentric anomaly
82.59059°
Mean motion
3.81748 °/min
Orbital period
94.3 mins
BSTAR
0.0027992
Loading maneuver chart data...
Computing Atmospheric mass density...
Loading historical data...
Loading historical data...
Loading historical data...
Loading historical data...
Loading historical data...
Loading historical data...
Loading historical data...

Documentation

Showing up to 5 results
|